Location: Huberhof
(49.2050°N, 7.4980°E)
Time: 00:15:29
(UTC+00:00)

Cosmos 1455 - Pass Details

Date: 29 October 2020
Orbit: 499 x 521 km, 82.5° (Epoch: 26 November)

Event Time Altitude Azimuth Distance (km) Brightness Sun altitude
Rises 17:52:11 0° 179° (S) 2,600 5.8 -16.6°
Reaches altitude 10° 17:54:18 10° 175° (S) 1,723 4.8 -17.0°
Maximum altitude 17:58:01 59° 96° (E) 595 2.1 -17.6°
Drops below altitude 10° 18:01:48 10° 17° (NNE) 1,752 4.7 -18.2°
Sets 18:03:58 0° 13° (NNE) 2,648 5.7 -18.6°
